Time,TemperatureF,DewpointF,PressureIn,WindDirection,WindDirectionDegrees,WindSpeedMPH,WindSpeedGustMPH,Humidity,HourlyPrecipIn,Conditions,Clouds,dailyrainin,SoftwareType,DateUTC
2013-03-23 00:03:00,45.0,-99.9,30.03,WSW,241,6.0,7.0,-999,-99.99,,,-99.99,,2013-03-23 04:03:00,
2013-03-23 00:13:00,45.0,-99.9,30.03,WSW,252,6.0,8.0,-999,-99.99,,,-99.99,,2013-03-23 04:13:00,
2013-03-23 00:23:00,46.0,-99.9,30.03,WSW,255,5.0,6.0,-999,-99.99,,,-99.99,,2013-03-23 04:23:00,
2013-03-23 00:33:00,46.0,-99.9,30.03,West,264,4.0,6.0,-999,-99.99,,,-99.99,,2013-03-23 04:33:00,
2013-03-23 00:43:00,46.0,-99.9,30.03,West,260,4.0,5.0,-999,-99.99,,,-99.99,,2013-03-23 04:43:00,
2013-03-23 00:53:00,45.0,-99.9,30.03,West,262,4.0,6.0,-999,-99.99,,,-99.99,,2013-03-23 04:53:00,
2013-03-23 01:02:00,45.0,-99.9,30.03,West,274,3.0,4.0,-999,-99.99,,,-99.99,,2013-03-23 05:02:00,
2013-03-23 01:12:00,45.0,-99.9,30.03,WNW,297,4.0,5.0,-999,-99.99,,,-99.99,,2013-03-23 05:12:00,
2013-03-23 01:22:00,45.0,-99.9,30.03,NW,314,3.0,4.0,-999,-99.99,,,-99.99,,2013-03-23 05:22:00,
2013-03-23 01:33:00,45.0,-99.9,30.03,West,266,4.0,5.0,-999,-99.99,,,-99.99,,2013-03-23 05:33:00,
2013-03-23 01:42:00,45.0,-99.9,30.03,West,262,3.0,4.0,-999,-99.99,,,-99.99,,2013-03-23 05:42:00,
2013-03-23 01:53:00,45.0,-99.9,30.03,West,263,3.0,4.0,-999,-99.99,,,-99.99,,2013-03-23 05:53:00,
2013-03-23 02:02:00,45.0,-99.9,30.02,WSW,254,4.0,5.0,-999,-99.99,,,-99.99,,2013-03-23 06:02:00,
2013-03-23 02:12:00,45.0,-99.9,30.02,West,263,4.0,5.0,-999,-99.99,,,-99.99,,2013-03-23 06:12:00,
2013-03-23 02:22:00,45.0,-99.9,30.03,West,265,4.0,4.0,-999,-99.99,,,-99.99,,2013-03-23 06:22:00,
2013-03-23 02:32:00,45.0,-99.9,30.03,West,262,6.0,7.0,-999,-99.99,,,-99.99,,2013-03-23 06:32:00,
2013-03-23 02:42:00,44.0,-99.9,30.03,WSW,251,6.0,7.0,-999,-99.99,,,-99.99,,2013-03-23 06:42:00,
2013-03-23 02:52:00,44.0,-99.9,30.03,WSW,252,5.0,6.0,-999,-99.99,,,-99.99,,2013-03-23 06:52:00,
2013-03-23 03:03:00,44.0,-99.9,30.03,WSW,252,6.0,8.0,-999,-99.99,,,-99.99,,2013-03-23 07:03:00,
2013-03-23 03:12:00,44.0,-99.9,30.03,WSW,255,6.0,7.0,-999,-99.99,,,-99.99,,2013-03-23 07:12:00,
2013-03-23 03:23:00,44.0,-99.9,30.03,WSW,258,5.0,6.0,-999,-99.99,,,-99.99,,2013-03-23 07:23:00,
2013-03-23 03:33:00,44.0,-99.9,30.02,West,266,6.0,8.0,-999,-99.99,,,-99.99,,2013-03-23 07:33:00,
2013-03-23 03:42:00,44.0,-99.9,30.02,West,261,6.0,8.0,-999,-99.99,,,-99.99,,2013-03-23 07:42:00,
2013-03-23 03:52:00,44.0,-99.9,30.01,West,266,5.0,6.0,-999,-99.99,,,-99.99,,2013-03-23 07:52:00,
2013-03-23 04:03:00,44.0,-99.9,30.00,West,268,4.0,5.0,-999,-99.99,,,-99.99,,2013-03-23 08:03:00,
2013-03-23 04:13:00,44.0,-99.9,30.00,West,271,4.0,5.0,-999,-99.99,,,-99.99,,2013-03-23 08:13:00,
2013-03-23 04:23:00,44.0,-99.9,29.99,West,266,4.0,6.0,-999,-99.99,,,-99.99,,2013-03-23 08:23:00,
2013-03-23 04:32:00,44.0,-99.9,30.00,WSW,258,5.0,6.0,-999,-99.99,,,-99.99,,2013-03-23 08:32:00,
2013-03-23 04:42:00,44.0,-99.9,30.00,West,267,6.0,8.0,-999,-99.99,,,-99.99,,2013-03-23 08:42:00,
2013-03-23 04:53:00,44.0,-99.9,30.00,West,267,5.0,7.0,-999,-99.99,,,-99.99,,2013-03-23 08:53:00,
2013-03-23 05:02:00,44.0,-99.9,29.99,West,278,3.0,4.0,-999,-99.99,,,-99.99,,2013-03-23 09:02:00,
2013-03-23 05:12:00,44.0,-99.9,30.00,West,264,4.0,6.0,-999,-99.99,,,-99.99,,2013-03-23 09:12:00,
2013-03-23 05:22:00,44.0,-99.9,30.00,West,261,4.0,5.0,-999,-99.99,,,-99.99,,2013-03-23 09:22:00,
2013-03-23 05:33:00,43.0,-99.9,30.00,WSW,250,4.0,6.0,-999,-99.99,,,-99.99,,2013-03-23 09:33:00,
2013-03-23 05:43:00,43.0,-99.9,30.00,WSW,247,5.0,6.0,-999,-99.99,,,-99.99,,2013-03-23 09:43:00,
2013-03-23 05:53:00,43.0,-99.9,30.01,WSW,256,6.0,8.0,-999,-99.99,,,-99.99,,2013-03-23 09:53:00,
2013-03-23 06:03:00,43.0,-99.9,30.01,West,259,3.0,6.0,-999,-99.99,,,-99.99,,2013-03-23 10:03:00,
2013-03-23 06:13:00,43.0,-99.9,30.01,West,259,2.0,4.0,-999,-99.99,,,-99.99,,2013-03-23 10:13:00,
2013-03-23 06:24:00,43.0,-99.9,30.00,West,264,3.0,4.0,-999,-99.99,,,-99.99,,2013-03-23 10:24:00,
2013-03-23 06:34:00,43.0,-99.9,30.01,WSW,258,5.0,6.0,-999,-99.99,,,-99.99,,2013-03-23 10:34:00,
2013-03-23 06:43:00,43.0,-99.9,30.01,West,265,4.0,6.0,-999,-99.99,,,-99.99,,2013-03-23 10:43:00,
2013-03-23 06:53:00,43.0,-99.9,30.01,West,277,3.0,4.0,-999,-99.99,,,-99.99,,2013-03-23 10:53:00,
2013-03-23 07:03:00,43.0,-99.9,30.00,WNW,293,2.0,2.0,-999,-99.99,,,-99.99,,2013-03-23 11:03:00,
2013-03-23 07:12:00,43.0,-99.9,30.01,NNW,340,4.0,5.0,-999,-99.99,,,-99.99,,2013-03-23 11:12:00,
2013-03-23 07:22:00,42.0,-99.9,30.01,NNW,328,4.0,5.0,-999,-99.99,,,-99.99,,2013-03-23 11:22:00,
2013-03-23 07:32:00,42.0,-99.9,30.01,NW,307,3.0,4.0,-999,-99.99,,,-99.99,,2013-03-23 11:32:00,
2013-03-23 07:42:00,42.0,-99.9,30.01,NW,310,2.0,2.0,-999,-99.99,,,-99.99,,2013-03-23 11:42:00,
2013-03-23 07:52:00,43.0,-99.9,30.02,WNW,292,2.0,3.0,-999,-99.99,,,-99.99,,2013-03-23 11:52:00,
2013-03-23 08:02:00,43.0,-99.9,30.01,WNW,283,1.0,2.0,-999,-99.99,,,-99.99,,2013-03-23 12:02:00,
2013-03-23 08:13:00,46.0,-99.9,30.01,WSW,252,3.0,3.0,-999,-99.99,,,-99.99,,2013-03-23 12:13:00,
2013-03-23 08:22:00,44.0,-99.9,30.02,WSW,247,4.0,4.0,-999,-99.99,,,-99.99,,2013-03-23 12:22:00,
2013-03-23 08:34:00,45.0,-99.9,30.02,WSW,252,4.0,5.0,-999,-99.99,,,-99.99,,2013-03-23 12:34:00,
2013-03-23 08:43:00,46.0,-99.9,30.03,WSW,256,4.0,5.0,-999,-99.99,,,-99.99,,2013-03-23 12:43:00,
2013-03-23 08:53:00,46.0,-99.9,30.02,WSW,256,4.0,5.0,-999,-99.99,,,-99.99,,2013-03-23 12:53:00,
2013-03-23 09:03:00,47.0,-99.9,30.02,WSW,244,3.0,4.0,-999,-99.99,,,-99.99,,2013-03-23 13:03:00,
2013-03-23 09:12:00,48.0,-99.9,30.02,WSW,242,3.0,4.0,-999,-99.99,,,-99.99,,2013-03-23 13:12:00,
2013-03-23 09:23:00,49.0,-99.9,30.02,SW,233,4.0,5.0,-999,-99.99,,,-99.99,,2013-03-23 13:23:00,
2013-03-23 09:33:00,49.0,-99.9,30.02,West,262,2.0,3.0,-999,-99.99,,,-99.99,,2013-03-23 13:33:00,
2013-03-23 09:43:00,49.0,-99.9,30.02,NW,320,3.0,5.0,-999,-99.99,,,-99.99,,2013-03-23 13:43:00,
2013-03-23 09:53:00,50.0,-99.9,30.01,NW,313,2.0,3.0,-999,-99.99,,,-99.99,,2013-03-23 13:53:00,
2013-03-23 10:03:00,50.0,-99.9,30.02,NNW,336,3.0,4.0,-999,-99.99,,,-99.99,,2013-03-23 14:03:00,
2013-03-23 10:13:00,51.0,-99.9,30.02,NW,319,2.0,5.0,-999,-99.99,,,-99.99,,2013-03-23 14:13:00,
2013-03-23 10:23:00,51.0,-99.9,30.02,NW,322,1.0,2.0,-999,-99.99,,,-99.99,,2013-03-23 14:23:00,
2013-03-23 10:33:00,52.0,-99.9,30.01,North,3,3.0,4.0,-999,-99.99,,,-99.99,,2013-03-23 14:33:00,
2013-03-23 10:43:00,52.0,-99.9,30.01,NNE,31,4.0,5.0,-999,-99.99,,,-99.99,,2013-03-23 14:43:00,
2013-03-23 10:53:00,51.0,-99.9,30.01,NE,47,6.0,7.0,-999,-99.99,,,-99.99,,2013-03-23 14:53:00,
2013-03-23 11:04:00,51.0,-99.9,30.01,East,86,3.0,4.0,-999,-99.99,,,-99.99,,2013-03-23 15:04:00,
2013-03-23 11:13:00,51.0,-99.9,30.01,ENE,66,5.0,6.0,-999,-99.99,,,-99.99,,2013-03-23 15:13:00,
2013-03-23 11:23:00,51.0,-99.9,30.01,East,87,4.0,5.0,-999,-99.99,,,-99.99,,2013-03-23 15:23:00,
2013-03-23 11:34:00,51.0,-99.9,30.02,ESE,115,3.0,4.0,-999,-99.99,,,-99.99,,2013-03-23 15:34:00,
2013-03-23 11:44:00,52.0,-99.9,30.03,ESE,115,0.0,1.0,-999,-99.99,,,-99.99,,2013-03-23 15:44:00,
2013-03-23 11:53:00,52.0,-99.9,30.03,WNW,296,4.0,7.0,-999,-99.99,,,-99.99,,2013-03-23 15:53:00,
2013-03-23 12:03:00,51.0,-99.9,30.03,NW,307,6.0,8.0,-999,-99.99,,,-99.99,,2013-03-23 16:03:00,
2013-03-23 12:13:00,51.0,-99.9,30.03,WNW,291,6.0,7.0,-999,-99.99,,,-99.99,,2013-03-23 16:13:00,
2013-03-23 12:23:00,50.0,-99.9,30.03,WNW,298,5.0,7.0,-999,-99.99,,,-99.99,,2013-03-23 16:23:00,
2013-03-23 12:33:00,50.0,-99.9,30.03,WNW,290,6.0,8.0,-999,-99.99,,,-99.99,,2013-03-23 16:33:00,
2013-03-23 12:43:00,49.0,-99.9,30.04,NW,316,8.0,10.0,-999,-99.99,,,-99.99,,2013-03-23 16:43:00,
2013-03-23 12:54:00,49.0,-99.9,30.03,NW,325,7.0,9.0,-999,-99.99,,,-99.99,,2013-03-23 16:54:00,
2013-03-23 13:03:00,48.0,-99.9,30.03,NNW,337,6.0,8.0,-999,-99.99,,,-99.99,,2013-03-23 17:03:00,
2013-03-23 13:12:00,47.0,-99.9,30.03,NNW,335,7.0,9.0,-999,-99.99,,,-99.99,,2013-03-23 17:12:00,
2013-03-23 13:23:00,47.0,-99.9,30.02,NNW,334,5.0,7.0,-999,-99.99,,,-99.99,,2013-03-23 17:23:00,
2013-03-23 13:33:00,47.0,-99.9,30.02,North,350,8.0,10.0,-999,-99.99,,,-99.99,,2013-03-23 17:33:00,
2013-03-23 13:43:00,47.0,-99.9,30.02,NNW,341,10.0,13.0,-999,-99.99,,,-99.99,,2013-03-23 17:43:00,
2013-03-23 13:53:00,47.0,-99.9,30.01,NNW,339,7.0,9.0,-999,-99.99,,,-99.99,,2013-03-23 17:53:00,
2013-03-23 14:03:00,47.0,-99.9,30.01,NW,315,7.0,9.0,-999,-99.99,,,-99.99,,2013-03-23 18:03:00,
2013-03-23 14:12:00,47.0,-99.9,30.01,NW,323,6.0,7.0,-999,-99.99,,,-99.99,,2013-03-23 18:12:00,
2013-03-23 14:23:00,48.0,-99.9,30.01,NW,305,5.0,6.0,-999,-99.99,,,-99.99,,2013-03-23 18:23:00,
2013-03-23 14:32:00,48.0,-99.9,30.02,West,281,6.0,7.0,-999,-99.99,,,-99.99,,2013-03-23 18:32:00,
2013-03-23 14:43:00,48.0,-99.9,30.01,NW,321,4.0,5.0,-999,-99.99,,,-99.99,,2013-03-23 18:43:00,
2013-03-23 14:53:00,48.0,-99.9,30.01,WNW,302,4.0,6.0,-999,-99.99,,,-99.99,,2013-03-23 18:53:00,
2013-03-23 15:03:00,49.0,-99.9,30.00,NW,323,4.0,6.0,-999,-99.99,,,-99.99,,2013-03-23 19:03:00,
2013-03-23 15:13:00,49.0,-99.9,29.98,NW,311,1.0,4.0,-999,-99.99,,,-99.99,,2013-03-23 19:13:00,
2013-03-23 15:23:00,49.0,-99.9,29.99,West,267,3.0,4.0,-999,-99.99,,,-99.99,,2013-03-23 19:23:00,
2013-03-23 15:33:00,49.0,-99.9,29.98,SW,226,4.0,4.0,-999,-99.99,,,-99.99,,2013-03-23 19:33:00,
2013-03-23 15:43:00,49.0,-99.9,29.98,West,274,-999.0,4.0,-999,-99.99,,,-99.99,,2013-03-23 19:43:00,
2013-03-23 15:53:00,49.0,-99.9,29.97,West,274,2.0,2.0,-999,-99.99,,,-99.99,,2013-03-23 19:53:00,
2013-03-23 16:03:00,52.0,-99.9,29.96,West,273,0.0,0.0,-999,-99.99,,,-99.99,,2013-03-23 20:03:00,
2013-03-23 16:13:00,51.0,-99.9,29.95,SE,140,2.0,3.0,-999,-99.99,,,-99.99,,2013-03-23 20:13:00,
2013-03-23 16:23:00,50.0,-99.9,29.94,ESE,115,3.0,4.0,-999,-99.99,,,-99.99,,2013-03-23 20:23:00,
2013-03-23 16:33:00,50.0,-99.9,29.93,SE,145,5.0,6.0,-999,-99.99,,,-99.99,,2013-03-23 20:33:00,
2013-03-23 16:43:00,50.0,-99.9,29.93,SSE,167,5.0,5.0,-999,-99.99,,,-99.99,,2013-03-23 20:43:00,
2013-03-23 16:53:00,50.0,-99.9,29.93,SE,137,2.0,3.0,-999,-99.99,,,-99.99,,2013-03-23 20:53:00,
2013-03-23 17:03:00,51.0,-99.9,29.92,SE,144,2.0,4.0,-999,-99.99,,,-99.99,,2013-03-23 21:03:00,
2013-03-23 17:12:00,51.0,-99.9,29.91,SE,138,4.0,6.0,-999,-99.99,,,-99.99,,2013-03-23 21:12:00,
2013-03-23 17:23:00,51.0,-99.9,29.91,SE,128,4.0,5.0,-999,-99.99,,,-99.99,,2013-03-23 21:23:00,
2013-03-23 17:33:00,50.0,-99.9,29.91,ESE,108,3.0,4.0,-999,-99.99,,,-99.99,,2013-03-23 21:33:00,
2013-03-23 17:43:00,51.0,-99.9,29.91,East,100,3.0,4.0,-999,-99.99,,,-99.99,,2013-03-23 21:43:00,
2013-03-23 17:54:00,50.0,-99.9,29.91,ESE,104,4.0,5.0,-999,-99.99,,,-99.99,,2013-03-23 21:54:00,
2013-03-23 18:03:00,50.0,-99.9,29.91,ESE,110,5.0,6.0,-999,-99.99,,,-99.99,,2013-03-23 22:03:00,
2013-03-23 18:13:00,50.0,-99.9,29.91,ESE,110,5.0,7.0,-999,-99.99,,,-99.99,,2013-03-23 22:13:00,
2013-03-23 18:24:00,51.0,-99.9,29.90,SE,129,6.0,7.0,-999,-99.99,,,-99.99,,2013-03-23 22:24:00,
2013-03-23 18:33:00,50.0,-99.9,29.91,SE,140,7.0,8.0,-999,-99.99,,,-99.99,,2013-03-23 22:33:00,
2013-03-23 18:43:00,50.0,-99.9,29.91,SE,143,7.0,8.0,-999,-99.99,,,-99.99,,2013-03-23 22:43:00,
2013-03-23 18:53:00,50.0,-99.9,29.91,SSE,147,7.0,9.0,-999,-99.99,,,-99.99,,2013-03-23 22:53:00,
2013-03-23 19:03:00,50.0,-99.9,29.90,SE,142,7.0,8.0,-999,-99.99,,,-99.99,,2013-03-23 23:03:00,
2013-03-23 19:13:00,50.0,-99.9,29.91,SSE,151,8.0,9.0,-999,-99.99,,,-99.99,,2013-03-23 23:13:00,
2013-03-23 19:23:00,50.0,-99.9,29.91,SE,145,7.0,8.0,-999,-99.99,,,-99.99,,2013-03-23 23:23:00,
2013-03-23 19:33:00,50.0,-99.9,29.91,SE,130,8.0,9.0,-999,-99.99,,,-99.99,,2013-03-23 23:33:00,
2013-03-23 19:43:00,50.0,-99.9,29.91,SE,141,7.0,8.0,-999,-99.99,,,-99.99,,2013-03-23 23:43:00,
2013-03-23 19:53:00,50.0,-99.9,29.91,SE,140,6.0,8.0,-999,-99.99,,,-99.99,,2013-03-23 23:53:00,
2013-03-23 20:02:00,50.0,-99.9,29.91,SE,146,7.0,8.0,-999,-99.99,,,-99.99,,2013-03-24 00:02:00,
2013-03-23 20:13:00,50.0,-99.9,29.93,SSE,156,7.0,8.0,-999,-99.99,,,-99.99,,2013-03-24 00:13:00,
2013-03-23 20:23:00,51.0,-99.9,29.93,SSE,163,6.0,7.0,-999,-99.99,,,-99.99,,2013-03-24 00:23:00,
2013-03-23 20:33:00,50.0,-99.9,29.93,SSE,159,3.0,4.0,-999,-99.99,,,-99.99,,2013-03-24 00:33:00,
2013-03-23 20:43:00,51.0,-99.9,29.94,South,173,5.0,5.0,-999,-99.99,,,-99.99,,2013-03-24 00:43:00,
2013-03-23 20:53:00,51.0,-99.9,29.95,South,184,6.0,6.0,-999,-99.99,,,-99.99,,2013-03-24 00:53:00,
2013-03-23 21:02:00,51.0,-99.9,29.95,South,184,6.0,7.0,-999,-99.99,,,-99.99,,2013-03-24 01:02:00,
2013-03-23 21:13:00,51.0,-99.9,29.95,SSW,193,3.0,4.0,-999,-99.99,,,-99.99,,2013-03-24 01:13:00,
2013-03-23 21:22:00,51.0,-99.9,29.95,South,189,1.0,2.0,-999,-99.99,,,-99.99,,2013-03-24 01:22:00,
2013-03-23 21:33:00,51.0,-99.9,29.96,SSW,196,1.0,1.0,-999,-99.99,,,-99.99,,2013-03-24 01:33:00,
2013-03-23 21:43:00,50.0,-99.9,29.97,SSW,211,1.0,1.0,-999,-99.99,,,-99.99,,2013-03-24 01:43:00,
2013-03-23 21:53:00,50.0,-99.9,29.96,NNW,334,4.0,5.0,-999,-99.99,,,-99.99,,2013-03-24 01:53:00,
2013-03-23 22:03:00,49.0,-99.9,29.96,NNW,332,6.0,7.0,-999,-99.99,,,-99.99,,2013-03-24 02:03:00,
2013-03-23 22:12:00,49.0,-99.9,29.96,NW,325,5.0,6.0,-999,-99.99,,,-99.99,,2013-03-24 02:12:00,
2013-03-23 22:22:00,48.0,-99.9,29.96,NW,325,5.0,6.0,-999,-99.99,,,-99.99,,2013-03-24 02:22:00,
2013-03-23 22:32:00,48.0,-99.9,29.96,NW,324,6.0,7.0,-999,-99.99,,,-99.99,,2013-03-24 02:32:00,
2013-03-23 22:43:00,47.0,-99.9,29.96,NW,322,2.0,3.0,-999,-99.99,,,-99.99,,2013-03-24 02:43:00,
2013-03-23 22:52:00,47.0,-99.9,29.96,NW,318,1.0,3.0,-999,-99.99,,,-99.99,,2013-03-24 02:52:00,
2013-03-23 23:03:00,48.0,-99.9,29.95,NW,306,1.0,1.0,-999,-99.99,,,-99.99,,2013-03-24 03:03:00,
2013-03-23 23:13:00,48.0,-99.9,29.94,NW,307,1.0,1.0,-999,-99.99,,,-99.99,,2013-03-24 03:13:00,
2013-03-23 23:23:00,48.0,-99.9,29.93,NW,308,-999.0,0.0,-999,-99.99,,,-99.99,,2013-03-24 03:23:00,
2013-03-23 23:33:00,48.0,-99.9,29.93,North,350,4.0,4.0,-999,-99.99,,,-99.99,,2013-03-24 03:33:00,
2013-03-23 23:43:00,48.0,-99.9,29.92,NE,34,2.0,3.0,-999,-99.99,,,-99.99,,2013-03-24 03:43:00,
2013-03-23 23:53:00,48.0,-99.9,29.91,North,1,3.0,4.0,-999,-99.99,,,-99.99,,2013-03-24 03:53:00,